#datint,netname,site,siteID,timestamp,airt_abovecanopy_avg,airt_f,airt_belowcanopy_avg,dpt_f,rh,soil_vwc,soil_f,Solar_rad,winds_mph,windd_deg,winds_mph_max,leafwetns,tot_10rain_mm,tot_60rain_mm,tot_dayrain_mm,leaft_1,budt_1
10min,FGNet,alpine,42.04,16FEB2021:00:00:00,29.0,29.3,29.1,27.4,94,31.3,32.306,0,3.6,139.7,7.1,100,0.00,0.00,0.01,29.165,29.1848
10min,FGNet,alpine,42.04,16FEB2021:00:10:00,29.3,29.6,29.4,27.9,94,31.3,32.306,0,3.5,197.2,4.9,100,0.00,0.00,0.00,29.2046,29.1452
10min,FGNet,alpine,42.04,16FEB2021:00:20:00,29.0,29.3,29.1,27.7,95,31.29,32.297,0,5.1,227.6,9.9,100,0.00,0.00,0.00,29.1254,29.264
10min,FGNet,alpine,42.04,16FEB2021:00:30:00,29.2,29.5,29.5,27.9,95,31.3,32.315,0,4.4,91.3,7.1,100,0.00,0.00,0.00,29.2046,29.606
10min,FGNet,alpine,42.04,16FEB2021:00:40:00,29.9,30.2,30.2,28.0,92,31.3,32.2664,0,3.2,174.6,5.7,100,0.00,0.00,0.00,29.174,29.6168
10min,FGNet,alpine,42.04,16FEB2021:00:50:00,29.8,29.9,29.8,27.7,92,31.29,32.3006,0,3.7,255.4,7.6,100,0.00,0.00,0.00,29.4008,29.6942
10min,FGNet,alpine,42.04,16FEB2021:01:00:00,29.8,30.1,30.0,28.0,93,31.29,32.2574,0,4.0,217.9,7.1,100,0.00,0.00,0.00,30.1856,30.362
10min,FGNet,alpine,42.04,16FEB2021:01:10:00,30.6,30.9,30.9,29.2,95,31.29,32.3006,0,6.7,259.6,15.9,100,0.00,0.00,0.00,30.911,31.9298
10min,FGNet,alpine,42.04,16FEB2021:01:20:00,30.7,30.7,30.8,29.1,94,31.29,32.3006,0,7.3,251,16.0,100,0.00,0.00,0.00,30.6158,31.244
10min,FGNet,alpine,42.04,16FEB2021:01:30:00,30.4,30.4,30.6,28.9,94,31.3,32.2916,0,8.0,205.6,15.7,100,0.00,0.00,0.00,30.6356,31.3412
10min,FGNet,alpine,42.04,16FEB2021:01:40:00,30.7,30.6,30.9,29.0,93,31.3,32.2574,0,6.0,221.1,11.4,100,0.00,0.00,0.00,31.0874,32.0468
10min,FGNet,alpine,42.04,16FEB2021:01:50:00,31.0,30.8,31.0,28.8,91,31.28,32.2646,0,7.6,271.4,13.2,100,0.00,0.00,0.00,31.1072,32.6138
10min,FGNet,alpine,42.04,16FEB2021:02:00:00,31.3,30.6,31.0,28.1,88,31.28,32.2646,0,6.0,270.6,12.3,100,0.00,0.00,0.00,31.0082,31.811
10min,FGNet,alpine,42.04,16FEB2021:02:10:00,31.1,30.6,30.9,28.3,89,31.28,32.2556,0,4.8,260.1,10.5,100,0.00,0.00,0.00,30.7724,31.1648
10min,FGNet,alpine,42.04,16FEB2021:02:20:00,30.9,30.7,30.9,28.7,92,31.29,32.2466,0,3.2,233.1,6.5,100,0.00,0.00,0.00,30.8696,31.3988
10min,FGNet,alpine,42.04,16FEB2021:02:30:00,30.9,30.7,31.0,28.8,92,31.28,32.2556,0,2.9,194.3,6.7,100,0.00,0.00,0.00,30.8102,31.1234
10min,FGNet,alpine,42.04,16FEB2021:02:40:00,30.8,30.6,30.9,28.8,92,31.29,32.2376,0,5.4,281.7,11.9,100,0.00,0.00,0.00,30.8876,31.4366
10min,FGNet,alpine,42.04,16FEB2021:02:50:00,30.8,30.6,31.0,28.6,92,31.29,32.243,0,4.4,229.3,14.2,100,0.00,0.00,0.00,30.9758,31.514
10min,FGNet,alpine,42.04,16FEB2021:03:00:00,30.7,30.5,30.8,28.4,91,31.28,32.2484,0,6.1,276.5,10.5,100,0.00,0.00,0.00,30.9452,31.8272
10min,FGNet,alpine,42.04,16FEB2021:03:10:00,30.8,30.5,30.9,27.7,88,31.28,32.225,0,6.3,269.5,11.7,100,0.00,0.00,0.00,31.2008,31.964
10min,FGNet,alpine,42.04,16FEB2021:03:20:00,30.8,30.7,30.7,27.5,87,31.28,32.216,0,5.9,305.2,9.6,100,0.00,0.00,0.00,31.0604,32.099
10min,FGNet,alpine,42.04,16FEB2021:03:30:00,30.9,30.9,31.0,27.0,85,31.29,32.243,0,5.2,263,13.3,100,0.00,0.00,0.00,31.5914,33.206
10min,FGNet,alpine,42.04,16FEB2021:03:40:00,32.1,31.8,31.6,25.5,76,31.28,32.261,0,10.4,270,17.5,100,0.00,0.00,0.00,31.9352,33.296
10min,FGNet,alpine,42.04,16FEB2021:03:50:00,32.7,32.0,31.8,24.4,71,31.28,32.2106,0,8.6,277.2,16.6,100,0.00,0.00,0.00,31.7876,33.197
10min,FGNet,alpine,42.04,16FEB2021:04:00:00,33.0,32.2,31.7,23.9,69,31.28,32.2214,0,7.4,285.3,12.5,100,0.00,0.00,0.00,31.5932,33.1196
10min,FGNet,alpine,42.04,16FEB2021:04:10:00,33.2,32.6,32.1,23.5,67,31.28,32.207,0,8.3,301.5,16.2,100,0.00,0.00,0.00,31.9928,33.3914
10min,FGNet,alpine,42.04,16FEB2021:04:20:00,33.3,32.8,32.4,23.3,66,31.28,32.2376,0,7.9,301.6,17.3,100,0.00,0.00,0.00,31.667,33.107
10min,FGNet,alpine,42.04,16FEB2021:04:30:00,33.5,32.9,32.5,22.9,65,31.27,32.2376,0,7.1,267,12.6,100,0.00,0.00,0.00,31.2944,32.783
10min,FGNet,alpine,42.04,16FEB2021:04:40:00,33.5,33.0,32.4,22.5,63,31.27,32.2214,0,8.3,301.8,19.6,100,0.00,0.00,0.00,32.1548,33.7604
10min,FGNet,alpine,42.04,16FEB2021:04:50:00,33.8,33.2,32.6,21.8,61,31.26,32.2124,0,8.8,282,15.1,100,0.00,0.00,0.00,31.883,33.548
10min,FGNet,alpine,42.04,16FEB2021:05:00:00,33.7,33.1,32.8,22.0,62,31.26,32.2214,0,5.9,242.8,9.9,100,0.00,0.00,0.00,31.0406,32.666
10min,FGNet,alpine,42.04,16FEB2021:05:10:00,33.6,33.2,32.6,21.5,61,31.27,32.2124,0,5.7,272.6,12.1,100,0.00,0.00,0.00,31.4924,33.3428
10min,FGNet,alpine,42.04,16FEB2021:05:20:00,33.6,33.1,32.6,21.6,61,31.28,32.207,0,7.0,283.9,12.3,100,0.00,0.00,0.00,31.0982,32.3222
10min,FGNet,alpine,42.04,16FEB2021:05:30:00,32.7,32.3,31.9,23.2,68,31.26,32.2106,0,5.6,307.9,12.6,100,0.00,0.00,0.00,31.5086,33.0566
10min,FGNet,alpine,42.04,16FEB2021:05:40:00,32.8,32.5,32.0,23.1,67,31.27,32.216,0,4.4,266.4,10.8,100,0.00,0.00,0.00,30.2396,31.748
10min,FGNet,alpine,42.04,16FEB2021:05:50:00,32.4,32.0,31.7,23.6,70,31.26,32.216,0,5.1,284.5,10.3,100,0.00,0.00,0.00,30.7292,31.433
10min,FGNet,alpine,42.04,16FEB2021:06:00:00,31.0,30.8,30.7,26.0,82,31.27,32.1854,0,5.4,301.7,8.3,100,0.00,0.00,0.00,29.8868,30.0434
10min,FGNet,alpine,42.04,16FEB2021:06:10:00,30.0,30.0,30.0,27.1,89,31.26,32.2034,0,3.6,267,6.2,100,0.00,0.00,0.00,29.4944,29.6312
10min,FGNet,alpine,42.04,16FEB2021:06:20:00,29.7,29.9,30.0,27.2,90,31.26,32.2034,0,5.3,266,10.1,100,0.00,0.00,0.00,29.6996,30.2396
10min,FGNet,alpine,42.04,16FEB2021:06:30:00,30.5,30.6,30.4,26.0,83,31.26,32.2124,0,6.7,298.9,12.5,100,0.00,0.00,0.00,30.2414,30.9668
10min,FGNet,alpine,42.04,16FEB2021:06:40:00,30.8,30.8,30.6,25.6,81,31.27,32.207,0,4.8,275,8.9,100,0.00,0.00,0.00,30.38,31.3016
10min,FGNet,alpine,42.04,16FEB2021:06:50:00,31.0,31.1,30.8,25.3,79,31.26,32.198,0,4.6,228.8,8.5,100,0.00,0.00,0.00,30.3602,31.0262
10min,FGNet,alpine,42.04,16FEB2021:07:00:00,31.4,31.4,31.0,24.7,76,31.25,32.2124,0,4.5,223.8,11.4,100,0.00,0.00,0.00,30.6338,31.6238
10min,FGNet,alpine,42.04,16FEB2021:07:10:00,32.1,32.1,31.6,23.8,71,31.26,32.2016,0,6.0,278,11.4,100,0.00,0.00,0.00,30.8498,31.8092
10min,FGNet,alpine,42.04,16FEB2021:07:20:00,31.7,31.7,31.3,24.4,74,31.23,32.2034,1,5.1,250.8,12.5,100,0.00,0.00,0.00,31.0838,32.1224
10min,FGNet,alpine,42.04,16FEB2021:07:30:00,32.0,32.1,31.7,23.6,71,31.25,32.2016,2,5.0,209,9.6,100,0.00,0.00,0.00,31.0244,32.0828
10min,FGNet,alpine,42.04,16FEB2021:07:40:00,32.3,32.4,32.0,22.9,68,31.25,32.1944,3,5.6,187.8,9.4,100,0.00,0.00,0.00,30.9452,32.0036
10min,FGNet,alpine,42.04,16FEB2021:07:50:00,32.4,32.3,31.7,22.3,66,31.25,32.1926,6,5.9,300.2,9.9,100,0.00,0.00,0.00,31.5536,32.7002
10min,FGNet,alpine,42.04,16FEB2021:08:00:00,32.5,32.4,31.9,22.2,65,31.25,32.2034,11,5.7,301.5,8.3,100,0.00,0.00,0.00,31.4564,32.1224
10min,FGNet,alpine,42.04,16FEB2021:08:10:00,32.3,32.3,31.9,22.2,66,31.25,32.18,10,5.3,292,9.6,100,0.00,0.00,0.00,31.3988,32.3582
10min,FGNet,alpine,42.04,16FEB2021:08:20:00,31.5,31.0,30.7,23.6,72,31.25,32.1944,12,3.4,178,5.5,100,0.00,0.00,0.00,30.0848,29.9462
10min,FGNet,alpine,42.04,16FEB2021:08:30:00,30.1,29.8,29.6,25.2,82,31.24,32.2034,14,3.5,153.4,5.3,100,0.00,0.00,0.00,30.1442,30.0074
10min,FGNet,alpine,42.04,16FEB2021:08:40:00,29.6,29.7,29.3,25.3,84,31.24,32.1854,16,2.9,172.6,4.0,100,0.00,0.00,0.00,31.0856,30.7526
10min,FGNet,alpine,42.04,16FEB2021:08:50:00,29.7,29.9,29.6,25.5,84,31.25,32.1944,27,2.8,191.4,5.7,100,0.00,0.00,0.00,32.2808,32.2034
10min,FGNet,alpine,42.04,16FEB2021:09:00:00,30.0,30.4,30.0,26.0,85,31.24,32.1746,43,3.3,184.1,4.8,100,0.00,0.00,0.00,32.5562,33.0836
10min,FGNet,alpine,42.04,16FEB2021:09:10:00,30.0,30.4,30.1,26.5,87,31.24,32.18,58,4.3,208.8,6.0,100,0.00,0.00,0.00,33.593,33.9854
10min,FGNet,alpine,42.04,16FEB2021:09:20:00,30.5,31.1,30.8,26.7,85,31.26,32.1926,58,4.6,165,6.9,100,0.00,0.00,0.00,36.0032,34.358
10min,FGNet,alpine,42.04,16FEB2021:09:30:00,31.1,31.8,31.4,26.6,83,31.25,32.1746,51,2.8,181.4,4.9,100,0.00,0.00,0.00,39.7994,35.2256
10min,FGNet,alpine,42.04,16FEB2021:09:40:00,31.6,31.9,31.7,26.5,81,31.24,32.1836,48,4.2,164.1,7.3,100,0.00,0.00,0.00,36.2444,34.2734
10min,FGNet,alpine,42.04,16FEB2021:09:50:00,31.8,32.3,32.0,25.6,77,31.23,32.1836,42,5.0,183.2,8.7,100,0.00,0.00,0.00,36.7502,34.4282
10min,FGNet,alpine,42.04,16FEB2021:10:00:00,32.0,32.4,32.1,25.7,77,31.23,32.18,48,4.3,181.1,8.7,100,0.00,0.00,0.00,38.3324,35.8952
10min,FGNet,alpine,42.04,16FEB2021:10:10:00,32.0,32.4,32.1,25.4,76,31.25,32.1584,61,5.4,181.7,8.5,100,0.00,0.00,0.00,37.328,34.9538
10min,FGNet,alpine,42.04,16FEB2021:10:20:00,32.1,32.6,32.3,26.1,78,31.23,32.1764,81,3.3,134.5,7.6,100,0.00,0.00,0.00,42.1718,35.699
10min,FGNet,alpine,42.04,16FEB2021:10:30:00,32.3,32.7,32.4,24.9,74,31.24,32.18,71,6.1,272.2,15.0,100,0.00,0.00,0.00,38.0948,35.6198
10min,FGNet,alpine,42.04,16FEB2021:10:40:00,32.3,32.7,32.4,24.4,72,31.24,32.198,55,6.9,256.7,12.3,100,0.00,0.00,0.00,36.6404,33.8378
10min,FGNet,alpine,42.04,16FEB2021:10:50:00,32.0,32.3,32.0,24.9,75,31.24,32.171,53,6.9,290.8,17.1,100,0.00,0.00,0.00,37.229,33.5246
10min,FGNet,alpine,42.04,16FEB2021:11:00:00,31.3,31.5,31.4,26.1,81,31.24,32.2196,59,4.2,249.8,7.6,100,0.00,0.00,0.00,36.356,33.818
10min,FGNet,alpine,42.04,16FEB2021:11:10:00,30.9,31.2,31.0,26.6,84,31.23,32.162,53,3.5,201.8,6.0,100,0.00,0.00,0.00,34.7774,33.5246
10min,FGNet,alpine,42.04,16FEB2021:11:20:00,31.0,31.4,31.2,26.3,83,31.24,32.153,54,2.8,155.7,5.5,100,0.00,0.00,0.00,36.365,34.5416
10min,FGNet,alpine,42.04,16FEB2021:11:30:00,31.5,32.0,31.8,25.8,79,31.23,32.1566,75,3.8,206.5,6.9,100,0.00,0.00,0.00,40.4042,35.5028
10min,FGNet,alpine,42.04,16FEB2021:11:40:00,32.0,32.5,32.2,25.9,78,31.24,32.1584,83,3.5,163.7,8.2,100,0.00,0.00,0.00,37.544,35.1014
10min,FGNet,alpine,42.04,16FEB2021:11:50:00,32.3,32.9,32.6,25.4,75,31.24,32.1584,90,3.6,246.9,11.2,100,0.00,0.00,0.00,40.8002,37.6826
10min,FGNet,alpine,42.04,16FEB2021:12:00:00,32.4,32.6,32.6,25.7,76,31.23,32.171,94,4.8,129.2,7.6,100,0.00,0.00,0.00,39.4952,36.6404
10min,FGNet,alpine,42.04,16FEB2021:12:10:00,32.6,33.2,33.0,25.0,73,31.23,32.1746,90,4.8,150.5,8.7,100,0.00,0.00,0.00,40.8992,37.6034
10min,FGNet,alpine,42.04,16FEB2021:12:20:00,33.3,33.7,33.4,24.0,68,31.23,32.189,93,8.0,269.9,13.0,100,0.00,0.00,0.00,38.7248,35.8358
10min,FGNet,alpine,42.04,16FEB2021:12:30:00,33.4,33.7,33.4,24.0,68,31.22,32.171,103,7.0,204.1,15.3,100,0.00,0.00,0.00,39.7112,36.2372
10min,FGNet,alpine,42.04,16FEB2021:12:40:00,33.4,33.8,33.4,24.1,68,31.22,32.1944,110,7.7,257.5,14.1,100,0.00,0.00,0.00,39.8102,36.248
10min,FGNet,alpine,42.04,16FEB2021:12:50:00,33.7,34.0,33.6,23.9,67,31.23,32.1926,123,10.2,272.9,17.1,100,0.01,0.01,0.01,37.6628,35.3264
10min,FGNet,alpine,42.04,16FEB2021:13:00:00,33.7,34.1,33.6,24.0,67,31.22,32.1836,136,9.7,284.1,16.9,100,0.01,0.02,0.02,39.8804,36.8474
10min,FGNet,alpine,42.04,16FEB2021:13:10:00,34.3,34.7,34.3,24.4,67,31.22,32.1836,172,5.5,260.1,12.8,100,0.00,0.00,0.02,40.7606,36.5612
10min,FGNet,alpine,42.04,16FEB2021:13:20:00,33.6,33.8,33.5,25.3,71,31.22,32.1746,184,8.5,299.7,15.3,100,0.00,0.00,0.02,42.0512,37.3478
10min,FGNet,alpine,42.04,16FEB2021:13:30:00,34.3,34.8,34.4,24.2,66,31.22,32.1854,188,6.6,239.5,12.6,100,0.00,0.00,0.02,40.5626,36.9734
10min,FGNet,alpine,42.04,16FEB2021:13:40:00,34.8,35.3,34.8,24.0,64,31.23,32.1746,271,7.4,301.6,14.1,100,0.00,0.00,0.02,53.474,43.169
10min,FGNet,alpine,42.04,16FEB2021:13:50:00,35.2,35.5,35.2,24.4,65,31.22,32.1944,347,9.5,315.3,17.3,100,0.00,0.00,0.02,41.9522,37.1912
10min,FGNet,alpine,42.04,16FEB2021:14:00:00,32.8,32.7,32.5,27.2,80,31.22,32.1674,164,6.8,259.7,17.5,100,0.00,0.00,0.02,36.68,34.043
10min,FGNet,alpine,42.04,16FEB2021:14:10:00,31.8,32.0,31.8,27.5,84,31.22,32.1854,197,5.5,154.7,10.7,100,0.00,0.00,0.02,37.4648,34.8548
10min,FGNet,alpine,42.04,16FEB2021:14:20:00,31.7,32.6,32.4,27.9,86,31.22,32.1674,411,3.4,107.8,7.3,100,0.00,0.00,0.02,61.448,46.2776
10min,FGNet,alpine,42.04,16FEB2021:14:30:00,33.4,34.6,34.8,27.6,79,31.22,32.1746,507,4.4,135.4,7.4,100,0.00,0.00,0.02,49.838,42.8486
10min,FGNet,alpine,42.04,16FEB2021:14:40:00,34.7,35.6,35.3,26.1,71,31.23,32.198,340,5.5,226.3,13.7,100,0.00,0.00,0.02,40.4834,37.2092
10min,FGNet,alpine,42.04,16FEB2021:14:50:00,35.0,35.5,35.0,23.8,63,31.23,32.171,303,6.7,282.8,13.3,100,0.00,0.00,0.02,54.5,42.2672
10min,FGNet,alpine,42.04,16FEB2021:15:00:00,35.5,35.9,35.6,22.8,60,31.23,32.171,248,6.5,264.2,12.3,100,0.02,0.02,0.04,43.682,38.7176
10min,FGNet,alpine,42.04,16FEB2021:15:10:00,35.3,35.8,35.4,22.8,60,31.23,32.1656,292,6.4,294.8,11.0,100,0.02,0.02,0.06,43.7198,37.9886
10min,FGNet,alpine,42.04,16FEB2021:15:20:00,34.8,34.9,34.7,23.3,62,31.22,32.1584,113,7.7,302.4,11.6,100,0.02,0.04,0.08,37.2812,35.1032
10min,FGNet,alpine,42.04,16FEB2021:15:30:00,34.0,34.2,34.0,23.4,65,31.23,32.1674,94,11.1,303.4,18.0,100,0.00,0.04,0.08,36.5576,34.9394
10min,FGNet,alpine,42.04,16FEB2021:15:40:00,34.1,34.6,34.3,22.3,62,31.23,32.1674,121,7.5,296.4,15.7,100,0.01,0.05,0.09,40.352,36.7358
10min,FGNet,alpine,42.04,16FEB2021:15:50:00,34.4,34.9,34.6,22.5,61,31.23,32.162,207,7.1,257.6,10.7,100,0.00,0.05,0.09,42.5084,38.1542
10min,FGNet,alpine,42.04,16FEB2021:16:00:00,33.9,34.1,33.8,25.6,71,31.22,32.189,201,5.0,258.5,11.9,100,0.01,0.06,0.10,38.0156,35.1302
10min,FGNet,alpine,42.04,16FEB2021:16:10:00,32.6,32.7,32.5,25.7,75,31.23,32.18,89,6.3,265.9,9.8,100,0.00,0.00,0.10,35.0132,32.8982
10min,FGNet,alpine,42.04,16FEB2021:16:20:00,31.3,32.1,31.8,27.8,87,31.23,32.1764,306,4.8,272.6,10.5,100,0.00,0.00,0.10,62.312,44.4308
10min,FGNet,alpine,42.04,16FEB2021:16:30:00,33.2,34.7,34.1,27.0,78,31.23,32.162,475,6.5,281,12.3,100,0.00,0.00,0.10,41.873,36.9932
10min,FGNet,alpine,42.04,16FEB2021:16:40:00,33.5,33.7,33.5,25.8,73,31.23,32.1944,183,8.6,308.8,15.5,100,0.00,0.00,0.10,36.6494,34.601
10min,FGNet,alpine,42.04,16FEB2021:16:50:00,32.9,33.2,33.0,25.1,73,31.24,32.1386,125,10.1,307.1,17.1,100,0.00,0.00,0.10,36.896,35.483
10min,FGNet,alpine,42.04,16FEB2021:17:00:00,33.6,34.2,33.9,23.4,66,31.25,32.153,173,7.4,286.5,11.6,100,0.00,0.00,0.10,36.6206,35.7962
10min,FGNet,alpine,42.04,16FEB2021:17:10:00,34.0,34.1,33.9,22.9,63,31.23,32.1944,123,9.1,273.2,19.1,100,0.00,0.00,0.10,36.2084,34.6208
10min,FGNet,alpine,42.04,16FEB2021:17:20:00,33.5,33.7,33.5,23.3,66,31.23,32.162,75,10.0,299.1,15.1,100,0.00,0.00,0.10,33.6218,33.6218
10min,FGNet,alpine,42.04,16FEB2021:17:30:00,33.6,33.7,33.5,22.5,63,31.23,32.1584,35,10.3,306.2,15.5,100,0.00,0.00,0.10,33.3086,33.485
10min,FGNet,alpine,42.04,16FEB2021:17:40:00,33.3,33.3,33.0,22.4,64,31.23,32.1476,33,7.8,308,16.2,100,0.00,0.00,0.10,32.4464,32.7794
10min,FGNet,alpine,42.04,16FEB2021:17:50:00,32.8,32.9,32.6,23.2,67,31.24,32.153,22,6.6,321.6,11.9,40,0.00,0.00,0.10,32.1728,32.486
10min,FGNet,alpine,42.04,16FEB2021:18:00:00,32.7,32.9,32.7,24.0,70,31.24,32.1386,10,9.0,310.5,15.7,0,0.00,0.00,0.10,32.1152,32.5544
10min,FGNet,alpine,42.04,16FEB2021:18:10:00,32.6,32.7,32.5,23.1,68,31.24,32.153,3,8.9,311,15.9,0,0.00,0.00,0.10,31.5068,32.1332
10min,FGNet,alpine,42.04,16FEB2021:18:20:00,32.5,32.7,32.5,22.9,67,31.24,32.1566,1,10.2,316.9,16.9,0,0.00,0.00,0.10,32.2322,32.4086
10min,FGNet,alpine,42.04,16FEB2021:18:30:00,32.7,33.0,32.6,22.5,66,31.23,32.1404,0,7.8,293.2,13.7,0,0.00,0.00,0.10,32.6624,33.0548
10min,FGNet,alpine,42.04,16FEB2021:18:40:00,33.3,33.4,33.2,21.7,62,31.24,32.1476,0,7.7,268.9,14.2,0,0.00,0.00,0.10,32.045,32.5256
10min,FGNet,alpine,42.04,16FEB2021:18:50:00,31.9,31.7,31.5,24.0,73,31.24,32.1314,0,8.0,313.4,14.8,0,0.00,0.00,0.10,30.0776,30.1946
10min,FGNet,alpine,42.04,16FEB2021:19:00:00,30.5,30.7,30.4,24.7,79,31.24,32.1224,0,6.0,293.8,15.5,0,0.00,0.00,0.10,29.9588,30.929
10min,FGNet,alpine,42.04,16FEB2021:19:10:00,31.5,31.8,31.4,23.2,71,31.24,32.126,0,6.7,307.7,12.1,0,0.00,0.00,0.10,30.803,31.1846
10min,FGNet,alpine,42.04,16FEB2021:19:20:00,30.9,30.9,30.7,24.3,76,31.24,32.1134,0,7.3,306.8,14.6,0,0.00,0.00,0.10,29.8814,30.0974
10min,FGNet,alpine,42.04,16FEB2021:19:30:00,29.8,30.2,29.9,25.4,84,31.25,32.135,0,7.1,269.1,16.2,0,0.00,0.00,0.10,30.488,30.8804
10min,FGNet,alpine,42.04,16FEB2021:19:40:00,30.3,30.6,30.3,25.2,81,31.24,32.1386,0,9.6,316.9,15.1,0,0.00,0.00,0.10,29.5466,29.7734
10min,FGNet,alpine,42.04,16FEB2021:19:50:00,29.8,30.4,30.1,25.3,83,31.24,32.1386,0,7.4,307.4,12.5,0,0.00,0.00,0.10,30.2342,31.0766
10min,FGNet,alpine,42.04,16FEB2021:20:00:00,31.2,31.6,31.0,22.5,70,31.24,32.144,0,6.5,266.8,11.6,0,0.00,0.00,0.10,30.0182,31.0766
10min,FGNet,alpine,42.04,16FEB2021:20:10:00,31.6,31.9,31.4,21.4,66,31.24,32.1296,0,7.7,296.2,13.7,0,0.00,0.00,0.10,31.5086,31.8992
10min,FGNet,alpine,42.04,16FEB2021:20:20:00,30.9,30.8,30.6,23.6,75,31.25,32.1224,0,9.0,306.6,17.3,0,0.00,0.00,0.10,29.4602,29.804
10min,FGNet,alpine,42.04,16FEB2021:20:30:00,29.7,30.2,29.9,24.4,81,31.23,32.1386,0,9.5,311,16.2,0,0.00,0.00,0.10,29.813,30.1964
10min,FGNet,alpine,42.04,16FEB2021:20:40:00,30.0,30.2,29.9,23.9,78,31.26,32.1116,0,9.5,305,14.8,0,0.00,0.00,0.10,29.2172,29.6096
10min,FGNet,alpine,42.04,16FEB2021:20:50:00,29.7,30.0,29.8,24.3,80,31.23,32.126,0,9.9,302.8,16.9,0,0.00,0.00,0.10,29.669,29.8454
10min,FGNet,alpine,42.04,16FEB2021:21:00:00,30.1,30.6,30.3,23.4,76,31.22,32.1224,0,8.4,292.3,16.6,0,0.00,0.00,0.10,29.678,30.1766
10min,FGNet,alpine,42.04,16FEB2021:21:10:00,30.7,31.0,30.8,21.9,69,31.24,32.1224,0,9.3,283.4,16.0,0,0.00,0.00,0.10,30.4142,30.8066
10min,FGNet,alpine,42.04,16FEB2021:21:20:00,31.1,31.3,31.1,20.3,64,31.23,32.1206,0,8.8,296.8,15.3,0,0.00,0.00,0.10,29.552,30.5132
10min,FGNet,alpine,42.04,16FEB2021:21:30:00,30.9,31.1,30.9,19.7,63,31.25,32.0936,0,7.1,255.1,12.6,0,0.00,0.00,0.10,29.6726,30.5744
10min,FGNet,alpine,42.04,16FEB2021:21:40:00,30.9,31.0,30.8,19.4,62,31.24,32.1206,0,5.9,312.1,12.6,0,0.00,0.00,0.10,30.0056,30.6518
10min,FGNet,alpine,42.04,16FEB2021:21:50:00,30.5,30.4,30.2,21.2,68,31.24,32.1296,0,5.5,294.7,11.6,0,0.00,0.00,0.10,28.0526,28.7312
10min,FGNet,alpine,42.04,16FEB2021:22:00:00,29.4,29.4,29.2,22.6,75,31.25,32.135,0,5.0,135.3,10.5,0,0.00,0.00,0.10,28.8284,29.6528
10min,FGNet,alpine,42.04,16FEB2021:22:10:00,30.2,30.5,30.3,20.2,66,31.24,32.1224,0,9.2,306.8,18.0,0,0.00,0.00,0.10,29.1236,29.615
10min,FGNet,alpine,42.04,16FEB2021:22:20:00,30.2,30.5,30.2,19.7,64,31.24,32.1206,0,5.3,231.6,12.8,0,0.00,0.00,0.10,28.4972,29.6546
10min,FGNet,alpine,42.04,16FEB2021:22:30:00,30.5,30.7,30.4,18.2,60,31.23,32.1296,0,8.3,285.1,14.1,0,0.00,0.00,0.10,28.7132,29.6366
10min,FGNet,alpine,42.04,16FEB2021:22:40:00,30.6,30.8,30.7,17.6,58,31.23,32.1044,0,8.8,277.5,15.1,0,0.00,0.00,0.10,29.5952,30.164
10min,FGNet,alpine,42.04,16FEB2021:22:50:00,30.6,30.7,30.5,17.6,58,31.24,32.1026,0,4.8,252.6,10.7,0,0.00,0.00,0.10,28.7816,29.813
10min,FGNet,alpine,42.04,16FEB2021:23:00:00,30.4,30.4,30.1,17.6,59,31.25,32.108,0,5.6,193.6,12.3,0,0.00,0.00,0.10,27.572,28.8698
10min,FGNet,alpine,42.04,16FEB2021:23:10:00,30.2,30.4,30.2,18.0,60,31.25,32.1224,0,6.5,258.6,13.9,0,0.00,0.00,0.10,29.6564,29.8526
10min,FGNet,alpine,42.04,16FEB2021:23:20:00,29.6,29.5,29.4,19.9,67,31.24,32.1206,0,5.0,275.4,9.6,0,0.00,0.00,0.10,28.4576,29.0372
10min,FGNet,alpine,42.04,16FEB2021:23:30:00,28.8,28.7,28.5,21.1,73,31.23,32.0954,0,3.6,199,7.6,0,0.00,0.00,0.10,27.5522,28.103
10min,FGNet,alpine,42.04,16FEB2021:23:40:00,29.0,29.2,29.0,20.6,71,31.24,32.1134,0,3.6,173,8.3,0,0.00,0.00,0.10,27.5126,28.2128
10min,FGNet,alpine,42.04,16FEB2021:23:50:00,29.0,29.1,28.9,20.9,71,31.24,32.108,0,3.8,172.6,6.7,0,0.00,0.00,0.10,28.3982,29.1452
10min,FGNet,genola,42.05,16FEB2021:00:00:00,30.7,31.1,30.8,28.2,90,9.47,37.5314,0,4.2,188.6,6.4,0,0.00,0.00,0.00,28.355,29.4602
10min,FGNet,genola,42.05,16FEB2021:00:10:00,30.6,30.7,30.0,27.8,89,9.48,37.526,0,3.0,235.1,6.2,0,0.00,0.00,0.00,27.149,28.67
10min,FGNet,genola,42.05,16FEB2021:00:20:00,30.0,30.0,29.4,27.5,90,9.49,37.5224,0,2.0,151.7,3.9,0,0.00,0.00,0.00,27.563,28.7888
10min,FGNet,genola,42.05,16FEB2021:00:30:00,30.2,30.3,29.7,27.7,90,9.43,37.5134,0,5.3,97,7.1,0,0.00,0.00,0.00,28.1966,29.6474
10min,FGNet,genola,42.05,16FEB2021:00:40:00,30.2,30.1,29.6,27.1,88,9.45,37.5044,0,3.6,210.9,6.9,0,0.00,0.00,0.00,26.6522,27.959
10min,FGNet,genola,42.05,16FEB2021:00:50:00,30.1,30.3,29.7,27.4,90,9.53,37.4918,0,4.4,122.5,7.1,0,0.00,0.00,0.00,28.7096,30.6626
10min,FGNet,genola,42.05,16FEB2021:01:00:00,31.6,30.9,30.3,27.1,83,9.43,37.4882,0,3.5,169.9,6.7,0,0.00,0.00,0.00,26.771,27.4442
10min,FGNet,genola,42.05,16FEB2021:01:10:00,31.3,31.6,30.3,27.4,85,9.49,37.481,0,4.3,49,5.7,0,0.00,0.00,0.00,28.5134,30.8786
10min,FGNet,genola,42.05,16FEB2021:01:20:00,31.8,30.9,30.1,26.4,80,9.42,37.4648,0,4.1,189.6,6.7,0,0.00,0.00,0.00,27.167,27.6026
10min,FGNet,genola,42.05,16FEB2021:01:30:00,28.8,29.0,28.7,26.2,90,9.46,37.4504,0,5.6,320.6,8.5,0,0.00,0.00,0.00,27.9986,28.4342
10min,FGNet,genola,42.05,16FEB2021:01:40:00,28.8,29.4,29.1,27.0,93,9.44,37.4378,0,6.8,322.3,10.1,0,0.00,0.00,0.00,29.2154,29.4224
10min,FGNet,genola,42.05,16FEB2021:01:50:00,29.7,30.4,30.1,28.1,94,9.45,37.4342,0,9.0,335,14.1,0,0.00,0.00,0.00,30.1316,30.2882
10min,FGNet,genola,42.05,16FEB2021:02:00:00,30.3,31.2,31.0,28.8,94,9.45,37.4216,0,11.1,329.6,14.6,0,0.00,0.00,0.00,30.722,31.5788
10min,FGNet,genola,42.05,16FEB2021:02:10:00,31.4,32.1,31.9,29.1,91,9.45,37.409,0,7.0,336.2,10.3,0,0.00,0.00,0.00,30.2486,31.4888
10min,FGNet,genola,42.05,16FEB2021:02:20:00,32.2,32.7,32.3,28.5,86,9.46,37.4,0,4.6,329.1,7.4,0,0.00,0.00,0.00,31.4708,32.2574
10min,FGNet,genola,42.05,16FEB2021:02:30:00,31.6,31.5,31.3,27.8,86,9.42,37.3928,0,4.2,177.8,6.7,0,0.00,0.00,0.00,30.4466,30.7616
10min,FGNet,genola,42.05,16FEB2021:02:40:00,30.5,30.7,30.5,27.8,90,9.49,37.3802,0,4.1,170.6,8.0,0,0.00,0.00,0.00,30.2378,30.2486
10min,FGNet,genola,42.05,16FEB2021:02:50:00,30.2,30.6,30.3,28.2,92,9.47,37.3532,0,5.2,144.2,9.6,0,0.00,0.00,0.00,30.2864,30.2864
10min,FGNet,genola,42.05,16FEB2021:03:00:00,30.1,30.6,30.4,28.5,94,9.46,37.3478,0,6.1,148.7,9.8,0,0.00,0.00,0.00,30.3998,30.4394
10min,FGNet,genola,42.05,16FEB2021:03:10:00,30.2,30.6,30.4,28.8,94,9.43,37.346,0,1.6,144.2,5.1,0,0.00,0.00,0.00,30.065,30.1928
10min,FGNet,genola,42.05,16FEB2021:03:20:00,30.3,30.7,30.5,28.9,95,9.53,37.3424,0,0.0,75.37,1.2,0,0.00,0.00,0.00,30.8336,31.0298
10min,FGNet,genola,42.05,16FEB2021:03:30:00,30.6,30.9,30.7,29.3,95,9.4,37.3244,0,1.7,209.6,6.5,0,0.00,0.00,0.00,29.6924,29.7698
10min,FGNet,genola,42.05,16FEB2021:03:40:00,29.8,30.1,29.9,28.3,94,9.46,37.3118,0,0.8,165.1,4.2,0,0.00,0.00,0.00,29.8904,29.9678
10min,FGNet,genola,42.05,16FEB2021:03:50:00,29.9,30.3,30.0,28.4,94,9.46,37.3028,0,3.2,72.06,4.8,0,0.00,0.00,0.00,29.453,29.5718
10min,FGNet,genola,42.05,16FEB2021:04:00:00,30.1,30.5,30.2,28.6,94,9.45,37.2794,0,3.6,67.9,4.4,0,0.00,0.00,0.00,30.362,30.4412
10min,FGNet,genola,42.05,16FEB2021:04:10:00,30.6,31.1,30.8,29.0,94,9.44,37.2614,0,5.0,66.38,6.2,0,0.00,0.00,0.00,30.6752,30.8138
10min,FGNet,genola,42.05,16FEB2021:04:20:00,31.4,31.7,31.2,29.0,91,9.45,37.256,0,4.9,70.57,6.2,0,0.00,0.00,0.00,30.5204,30.7562
10min,FGNet,genola,42.05,16FEB2021:04:30:00,31.8,31.9,31.3,27.9,85,9.44,37.2524,0,5.4,67.96,6.4,0,0.00,0.00,0.00,30.1478,30.6014
10min,FGNet,genola,42.05,16FEB2021:04:40:00,31.9,31.9,30.9,27.3,83,9.42,37.2416,0,4.2,52.83,5.3,0,0.00,0.00,0.00,31.1144,31.5464
10min,FGNet,genola,42.05,16FEB2021:04:50:00,32.6,32.6,31.8,27.5,81,9.47,37.2236,0,3.7,69.05,4.8,0,0.00,0.00,0.00,29.7536,30.4052
10min,FGNet,genola,42.05,16FEB2021:05:00:00,32.1,31.7,31.1,27.5,83,9.5,37.22,0,2.6,168.1,4.2,0,0.00,0.00,0.00,29.615,30.3242
10min,FGNet,genola,42.05,16FEB2021:05:10:00,31.1,30.9,30.4,27.3,86,9.44,37.2128,0,1.5,121.2,4.0,0,0.00,0.00,0.00,29.9876,30.5996
10min,FGNet,genola,42.05,16FEB2021:05:20:00,31.7,31.9,31.3,27.7,85,9.45,37.1966,0,4.9,71.82,5.8,0,0.00,0.00,0.00,31.154,31.7444
10min,FGNet,genola,42.05,16FEB2021:05:30:00,32.6,32.4,31.9,27.5,81,9.47,37.1732,0,5.7,85.5,6.5,0,0.00,0.00,0.00,30.9146,31.6634
10min,FGNet,genola,42.05,16FEB2021:05:40:00,32.7,32.5,31.9,27.4,81,9.41,37.166,0,4.8,89.1,5.5,0,0.00,0.00,0.00,31.5752,32.2844
10min,FGNet,genola,42.05,16FEB2021:05:50:00,33.2,33.1,32.5,27.2,79,9.48,37.1642,0,4.9,83,5.7,0,0.00,0.00,0.00,31.7498,32.5472